Location: Corte Bragagnani
(45.3000°N, 11.1000°E)
Time: 17:46:07
(UTC+00:00)

BREEZE M DEB (TANK) - Pass Details

Date: 09 April 2020
Orbit: 304 x 11878 km, 49.5° (Epoch: 28 May)

Event Time Altitude Azimuth Distance (km) Brightness Sun altitude
Rises 19:18:11 0° 222° (SW) 2,190 5.6 -14.6°
Reaches altitude 10° 19:19:35 10° 216° (SW) 1,540 4.7 -14.9°
Maximum altitude 19:22:31 50° 138° (SE) 861 2.9 -15.3°
Drops below altitude 10° 19:30:05 10° 66° (ENE) 3,931 6.3 -16.5°
Sets 19:36:01 0° 63° (ENE) 6,424 7.4 -17.4°
